STARLINK-2002 (47597 NORAD) Tracking and Keplerian Element Data

This shows tracking and keplerian element data for the satellite.

Feedback or suggestion? Click here.




ElementValue
Catalog47597
NameSTARLINK-2002
Epoch Orbit176
Epoch Day59.91667824
Epoch Year2021
RAAN3.0122
Inclination53.0527
Eccentricity0.0001075
Argument of Perigee64.9034
Mean Anonmoly252.5896
Mean Motion15.58812185
Decay Rate-0.0090182
L11 47597U 21009BB 21059.91667824 -.00901820 00000-0 -12594-1 0 9998
L22 47597 53.0527 3.0122 0001075 64.9034 252.5896 15.58812185 1768

Live tracking and technical data element details for STARLINK-2002 (NORAD 47597). STARLINK-2002 can be tracked NOW for your location showing map with azimuth and elevation plus other details from your city location.

Track the satellite on the map from your city or location and see movement details for azimuth, elevation, latitude, longitude, range, height, and movement on the map or in text.







IsCatalogInMostPopularTable: catalog: 47597, numindb: 3
Update: records affected: 1



GetName: 47597 STARLINK-2002

Hit Count: updated at: Mon, 01 Mar 2021 15:44:41 GMT